Location: *
(50.3440°N, 18.6237°E)
Time: 18:08:14
(UTC+00:00)

Cosmos 1606 - Pass Details

Date: 30 November 2020
Orbit: 502 x 528 km, 82.5° (Epoch: 17 January)

Event Time Altitude Azimuth Distance (km) Brightness Sun altitude
Rises 15:29:22 0° 174° (S) 2,655 6.6 -6.9°
Reaches altitude 10° 15:31:32 10° 169° (S) 1,770 5.6 -7.2°
Maximum altitude 15:35:18 49° 95° (E) 692 3.0 -7.7°
Drops below altitude 10° 15:39:04 10° 20° (NNE) 1,778 5.0 -8.3°
Sets 15:41:15 0° 15° (NNE) 2,669 5.9 -8.6°
